Stations météo

Publicité
Rostherne No 2, Grande-Bretagne (3351): Température de l'air & dewpoint: 15.10.2019 05:00:00 - 21.10.2019 05:00:00 (BST)Rostherne No 2, Grande-Bretagne (3351): Vitesse du vent: 15.10.2019 05:00:00 - 21.10.2019 05:00:00 (BST)Rostherne No 2, Grande-Bretagne (3351): Direction du vent: 15.10.2019 05:00:00 - 21.10.2019 05:00:00 (BST)Rostherne No 2, Grande-Bretagne (3351): reduced air pressure: 15.10.2019 05:00:00 - 21.10.2019 05:00:00 (BST)Rostherne No 2, Grande-Bretagne (3351): visibility: 15.10.2019 05:00:00 - 21.10.2019 05:00:00 (BST)Rostherne No 2, Grande-Bretagne (3351): Ensoleillement: 15.10.2019 05:00:00 - 21.10.2019 05:00:00 (BST)Rostherne No 2, Grande-Bretagne (3351): Quantités de précipitations: 15.10.2019 05:00:00 - 21.10.2019 05:00:00 (BST)
Date & Time tt [°C] td [°C] ff [km/h] ff [knt] dd ppp [hPa] vv [km] sd [min] rr [mm]
21.10.2019 05:00:00 8,2 6,8 9 5 NW 1020,1 45 0 0,0
21.10.2019 04:00:00 8,2 6,6 11 6 NW 1019,9 50 0 0,0
21.10.2019 03:00:00 8,3 6,7 9 5 NNW 1019,8 50 0 0,0
21.10.2019 02:00:00 8,5 6,6 11 6 NNW 1019,9 45 0 0,0
21.10.2019 01:00:00 8,4 6,5 9 5 NW 1019,9 40 - 0,0
21.10.2019 00:00:00 8,5 6,3 8 4 N 1019,5 40 0 0,0
20.10.2019 23:00:00 8,9 5,9 13 7 NNE 1018,6 45 0 0,0
20.10.2019 22:00:00 9,6 6,2 18 10 NNE 1018,5 50 0 0,0
20.10.2019 21:00:00 10,0 6,9 15 8 N 1018,1 40 0 0,0
20.10.2019 20:00:00 10,3 7,0 16 9 N 1017,4 45 0 0,0
20.10.2019 19:00:00 10,6 7,3 13 7 N 1016,8 50 0 0,0
20.10.2019 18:00:00 10,7 7,3 16 9 N 1016,0 50 0 0,0
20.10.2019 17:00:00 10,9 7,5 16 9 N 1014,8 50 0 0,0
20.10.2019 16:00:00 10,7 7,2 15 8 N 1014,2 22 0 0,0
20.10.2019 15:00:00 10,5 6,6 13 7 N 1014,1 50 0 0,0
20.10.2019 14:00:00 10,4 6,3 15 8 N 1013,9 45 0 0,0
20.10.2019 13:00:00 10,8 6,0 15 8 N 1013,5 45 0 0,0
20.10.2019 12:00:00 11,0 5,9 11 6 NNW 1013,1 40 24 0,0
20.10.2019 11:00:00 10,0 5,7 11 6 N 1012,9 50 42 0,0
20.10.2019 10:00:00 8,5 6,3 9 5 NW 1012,4 50 0 0,0
20.10.2019 09:00:00 6,6 6,1 8 4 NW 1011,7 35 12 0,0
20.10.2019 08:00:00 4,9 4,4 5 3 WNW 1011,0 24 0 0,0
20.10.2019 07:00:00 5,2 4,5 5 3 NW 1010,3 29 0 0,0
20.10.2019 06:00:00 6,2 4,9 5 3 NNW 1009,6 30 0 0,0
20.10.2019 05:00:00 6,5 5,5 8 4 NW 1008,8 30 0 0,0
20.10.2019 04:00:00 7,0 5,4 8 4 NW 1008,3 40 0 0,0
20.10.2019 03:00:00 7,7 6,5 9 5 NW 1007,7 35 0 0,0
20.10.2019 02:00:00 7,8 6,6 5 3 NW 1007,3 30 0 0,0
20.10.2019 01:00:00 7,5 6,4 4 2 NW 1006,8 30 - 0,0
20.10.2019 00:00:00 7,4 6,1 4 2 WNW 1006,3 40 0 0,0
19.10.2019 23:00:00 7,4 6,8 8 4 NNW 1005,4 45 0 0,0
19.10.2019 22:00:00 7,0 5,9 9 5 NW 1004,8 40 0 0,0
19.10.2019 21:00:00 9,0 6,9 8 4 NNW 1003,8 50 0 0,0
19.10.2019 20:00:00 9,6 8,2 11 6 NNW 1003,0 45 0 0,0
19.10.2019 19:00:00 9,5 8,4 8 4 NW 1002,1 22 0 0,0
19.10.2019 18:00:00 10,3 8,6 8 4 WNW 1001,2 40 0 0,0
19.10.2019 17:00:00 11,3 8,7 11 6 W 1000,5 45 0 0,0
19.10.2019 16:00:00 12,0 8,7 11 6 WNW 999,7 50 0 0,0
19.10.2019 15:00:00 12,3 8,6 11 6 W 999,1 50 18 0,0
19.10.2019 14:00:00 12,0 8,8 9 5 W 998,7 45 0 0,0
19.10.2019 13:00:00 12,0 8,9 11 6 WNW 998,5 45 18 0,0
19.10.2019 12:00:00 12,4 9,2 9 5 W 998,2 23 36 0,0
19.10.2019 11:00:00 10,5 9,4 4 2 N 997,8 10 0 0,0
19.10.2019 10:00:00 9,4 9,1 8 4 WNW 997,3 9 0 0,0
19.10.2019 09:00:00 8,6 8,2 5 3 WNW 996,3 9 0 0,0
19.10.2019 08:00:00 8,2 7,8 8 4 W 995,6 12 0 0,0
19.10.2019 07:00:00 8,4 7,7 5 3 SSW 995,0 35 0 0,0
19.10.2019 06:00:00 8,6 7,6 8 4 SSW 994,8 50 0 0,0
19.10.2019 05:00:00 8,6 7,6 9 5 S 994,6 50 0 0,0
19.10.2019 04:00:00 8,2 7,4 9 5 S 994,5 45 0 0,0
19.10.2019 03:00:00 8,7 7,7 9 5 S 994,5 50 0 0,0
19.10.2019 02:00:00 8,7 7,8 9 5 SSW 994,3 40 0 0,0
19.10.2019 01:00:00 9,0 8,0 9 5 SSW 994,3 50 - 0,0
19.10.2019 00:00:00 9,1 7,9 13 7 SSW 993,9 50 0 0,0
18.10.2019 23:00:00 9,5 8,4 13 7 S 993,4 40 0 0,0
18.10.2019 22:00:00 9,9 8,5 21 11 S 993,2 20 0 0,2
18.10.2019 21:00:00 10,1 8,9 15 8 S 993,0 25 0 0,0
18.10.2019 20:00:00 9,9 8,9 15 8 SSE 993,3 27 0 1,4
18.10.2019 19:00:00 9,8 8,7 18 10 SSE 993,4 25 0 1,0
18.10.2019 18:00:00 9,9 8,5 11 6 SSE 993,9 35 0 1,0
18.10.2019 17:00:00 10,4 8,4 11 6 S 994,6 11 0 0,8
18.10.2019 16:00:00 11,3 8,8 9 5 S 994,6 40 0 0,0
18.10.2019 15:00:00 11,3 8,7 9 5 S 994,6 50 12 0,0
18.10.2019 14:00:00 11,2 8,4 11 6 SSW 994,8 35 6 0,0
18.10.2019 13:00:00 11,8 8,5 13 7 SSW 995,0 35 24 0,0
18.10.2019 12:00:00 11,2 8,1 13 7 S 995,1 45 18 0,0
18.10.2019 11:00:00 9,8 7,8 15 8 S 995,2 30 18 0,0
18.10.2019 10:00:00 8,5 7,5 11 6 S 995,5 50 36 0,2
18.10.2019 09:00:00 7,8 7,4 9 5 SSE 995,2 22 24 0,0
18.10.2019 08:00:00 7,4 7,0 9 5 S 995,4 17 0 0,0
18.10.2019 07:00:00 8,0 7,8 9 5 SSW 995,2 14 0 0,0
18.10.2019 06:00:00 8,0 7,6 4 2 SSW 995,3 11 0 0,0
18.10.2019 05:00:00 8,4 7,9 4 2 SSE 995,3 18 0 0,2
18.10.2019 04:00:00 9,0 8,3 4 2 S 995,8 6 0 1,0
18.10.2019 03:00:00 9,2 8,5 4 2 S 996,3 9 0 0,4
18.10.2019 02:00:00 9,4 8,2 9 5 SSE 996,9 35 0 0,0
18.10.2019 01:00:00 10,0 8,5 15 8 S 997,2 35 - 0,0
18.10.2019 00:00:00 10,2 8,5 15 8 S 997,8 50 0 0,0
17.10.2019 23:00:00 10,5 8,2 15 8 S 998,6 30 0 0,0
17.10.2019 22:00:00 11,0 8,3 16 9 S 998,8 35 0 0,0
17.10.2019 21:00:00 10,9 9,0 11 6 SSE 998,9 35 0 0,0
17.10.2019 20:00:00 10,9 8,9 13 7 SSE 999,1 50 0 0,0
17.10.2019 19:00:00 11,5 9,0 13 7 SSE 999,6 45 0 0,0
17.10.2019 18:00:00 12,0 8,3 16 9 SSE 999,8 45 0 0,0
17.10.2019 17:00:00 12,6 7,7 16 9 SSE 1000,0 45 6 0,0
17.10.2019 16:00:00 13,4 7,8 16 9 S 1000,5 50 18 0,0
17.10.2019 15:00:00 13,7 7,8 16 9 S 1001,1 35 18 0,0
17.10.2019 14:00:00 13,2 7,6 22 12 S 1001,8 35 48 0,0
17.10.2019 13:00:00 13,4 7,8 22 12 S 1002,4 24 60 0,0
17.10.2019 12:00:00 12,7 8,8 15 8 S 1002,9 26 60 0,0
17.10.2019 11:00:00 11,2 7,9 16 9 S 1003,5 25 60 0,0
17.10.2019 10:00:00 10,2 7,6 15 8 S 1003,8 24 48 0,0
17.10.2019 09:00:00 7,0 6,0 11 6 SSE 1004,0 25 42 0,0
17.10.2019 08:00:00 5,7 4,9 11 6 S 1004,1 27 0 0,0
17.10.2019 07:00:00 4,5 3,7 9 5 SSE 1003,9 21 0 0,0
17.10.2019 06:00:00 6,3 4,7 11 6 S 1004,0 30 0 0,0
17.10.2019 05:00:00 6,8 5,0 13 7 S 1004,1 24 0 0,0
17.10.2019 04:00:00 6,9 5,1 9 5 S 1004,5 30 0 0,0
17.10.2019 03:00:00 5,1 4,3 8 4 SSE 1004,6 24 0 0,0
17.10.2019 02:00:00 7,3 5,5 8 4 S 1004,7 29 0 0,0
17.10.2019 01:00:00 7,3 5,6 9 5 SSW 1004,5 23 - 0,0
17.10.2019 00:00:00 7,5 5,8 9 5 SSW 1004,2 24 0 0,0
16.10.2019 23:00:00 7,2 5,8 5 3 S 1004,3 29 0 0,0
16.10.2019 22:00:00 6,6 6,2 4 2 S 1004,2 20 0 0,0
16.10.2019 21:00:00 5,5 4,4 5 3 SSE 1003,8 21 0 0,0
16.10.2019 20:00:00 8,6 7,3 8 4 WSW 1003,5 28 0 0,0
16.10.2019 19:00:00 7,8 5,5 5 3 WSW 1003,0 25 0 0,0
16.10.2019 18:00:00 10,8 6,2 9 5 WNW 1002,5 28 42 0,0
16.10.2019 17:00:00 13,4 7,5 11 6 WNW 1002,0 30 42 0,0
16.10.2019 16:00:00 12,6 7,4 18 10 WNW 1001,6 35 36 0,0
16.10.2019 15:00:00 12,6 6,6 21 11 W 1001,5 - 18 0,0
16.10.2019 14:00:00 13,2 7,3 21 11 W 1001,4 - 36 0,0
16.10.2019 13:00:00 12,5 8,3 22 12 W 1000,8 - 18 0,0
16.10.2019 12:00:00 12,3 10,0 15 8 W 1000,2 - 0 0,0
16.10.2019 11:00:00 11,7 10,4 16 9 W 999,6 - 0 0,0
16.10.2019 10:00:00 11,0 10,2 16 9 W 998,9 - 0 0,2
16.10.2019 09:00:00 12,6 11,9 16 9 S 997,7 40 0 0,0
16.10.2019 08:00:00 12,2 11,5 18 10 S 997,0 50 0 0,8
16.10.2019 07:00:00 12,1 11,3 16 9 S 996,9 28 0 0,4
16.10.2019 06:00:00 11,6 10,9 18 10 SE 997,2 15 0 0,4
16.10.2019 05:00:00 11,5 10,4 18 10 SSE 998,0 21 0 0,2
16.10.2019 04:00:00 11,2 9,5 16 9 SSE 999,0 35 0 0,0
16.10.2019 03:00:00 10,7 8,9 13 7 SSE 999,9 40 0 0,0
16.10.2019 02:00:00 10,4 8,6 15 8 SSE 1000,5 40 0 0,0
16.10.2019 01:00:00 10,0 8,6 13 7 SSE 1001,3 45 - 0,0
16.10.2019 00:00:00 9,5 8,5 9 5 SSE 1001,9 14 0 0,0
15.10.2019 23:00:00 11,0 9,7 15 8 S 1002,1 24 0 0,0
15.10.2019 22:00:00 10,8 9,7 13 7 SSE 1002,1 11 0 0,0
15.10.2019 21:00:00 11,8 10,6 11 6 S 1002,2 19 0 0,0
15.10.2019 20:00:00 11,1 10,0 9 5 SSE 1002,5 24 0 0,0
15.10.2019 19:00:00 10,0 8,9 9 5 SSE 1002,5 27 0 0,0
15.10.2019 18:00:00 10,7 8,8 9 5 SSE 1002,3 35 24 0,0
15.10.2019 17:00:00 12,1 9,7 9 5 S 1002,2 40 0 0,0
15.10.2019 16:00:00 12,1 9,2 8 4 S 1002,5 35 0 0,0
15.10.2019 15:00:00 12,1 9,5 8 4 S 1002,5 40 0 0,0
15.10.2019 14:00:00 11,3 9,2 5 3 S 1002,8 23 0 0,0
15.10.2019 13:00:00 10,9 9,8 8 4 S 1003,0 14 0 0,0
15.10.2019 12:00:00 10,8 10,2 8 4 S 1003,2 5 0 0,0
15.10.2019 11:00:00 10,3 10,1 5 3 SSW 1003,1 8 0 0,0
15.10.2019 10:00:00 9,7 9,7 4 2 SSW 1003,1 6 0 0,0
15.10.2019 09:00:00 9,6 9,5 4 2 W 1003,0 1,8 0 0,4
15.10.2019 08:00:00 9,3 9,2 2 1 NE 1002,6 2,8 0 0,0
15.10.2019 07:00:00 9,2 9,1 5 3 W 1001,8 5 0 0,0
15.10.2019 06:00:00 9,1 9,0 8 4 NNW 1001,8 5 0 0,0
15.10.2019 05:00:00 9,4 9,2 8 4 NW 1002,0 9 0 0,0

tt = Température de l'air
td = dewpoint
ff = Vitesse du vent
dd = Direction du vent
ppp = reduced air pressure
vv = visibility
sd = Ensoleillement
rr = Quantités de précipitations

stations d'obs. à proximité